Fort Lauderdale, FL

1:11 AM EST on December 13, 2019 (GMT -0500)
Fort Lauderdale Executive

Weather History for KFXE - October, 2019

Change the Weather History Date:

Sunday, October 6, 2019

  Actual Average Record
Temperature  
Mean Temperature 81 °F -  
Max Temperature 88 °F 88 °F 95 °F (1986)
Min Temperature 75 °F 72 °F 64 °F (1992)
Cooling Degree Days 16    
Growing Degree Days 31 (Base 50)    
Moisture  
Dew Point 73 °F    
Average Humidity 79    
Maximum Humidity 94    
Minimum Humidity 61    
Precipitation  
Precipitation 0.32 in - - ()
Sea Level Pressure  
Sea Level Pressure 29.92 in    
Wind  
Wind Speed 11 mph ()    
Max Wind Speed 21 mph    
Max Gust Speed 28 mph    
Visibility 8.3 miles    
Events Rain    
Averages and records for this station are not official NWS values.
T = Trace of Precipitation, MM = Missing Value Source: Averaged Metar Reports

Daily Weather History Graph

Daily Weather History Graph

Search for Another Location

Airport or City:

Astronomy

Oct. 06, 2019 Rise Set
Actual Time 7:15 AM EDT 7:02 PM EDT
Civil Twilight 6:52 AM EDT 7:25 PM EDT
Nautical Twilight 6:25 AM EDT 7:51 PM EDT
Astronomical Twilight 5:58 AM EDT 8:18 PM EDT
Moon 2:58 PM EDT (10/6) 12:54 AM EDT (10/6)
Length of Visible Light 12h 33m
Length of Day
11h 46m
First Quarter, 59% of the Moon is Illuminated
Oct 6
First Quarter
Oct 13
Full
Oct 21
Last Quarter
Oct 27
New
Nov 4
First Quarter

Hourly Weather History & Observations

Time (EDT) Temp. Heat Index Dew Point Humidity Pressure Visibility Wind Dir Wind Speed Gust Speed Precip Events Conditions
12:53 AM 80.1 °F 83.8 °F 72.0 °F 76% 29.94 in 10.0 mi ENE 10.4 mph - N/A   Clear
1:53 AM 80.1 °F 83.8 °F 72.0 °F 76% 29.93 in 10.0 mi ENE 13.8 mph - N/A   Partly Cloudy
2:53 AM 80.1 °F 83.8 °F 72.0 °F 76% 29.92 in 10.0 mi ENE 10.4 mph - N/A   Clear
3:53 AM 80.1 °F 83.6 °F 71.1 °F 74% 29.91 in 10.0 mi ENE 10.4 mph - N/A   Partly Cloudy
4:53 AM 80.1 °F 83.6 °F 71.1 °F 74% 29.91 in 10.0 mi ENE 11.5 mph - N/A   Scattered Clouds
5:53 AM 80.1 °F 83.2 °F 70.0 °F 71% 29.92 in 10.0 mi ENE 12.7 mph - N/A   Scattered Clouds
6:53 AM 79.0 °F - 71.1 °F 77% 29.94 in 10.0 mi ENE 10.4 mph - 0.00 in   Scattered Clouds
7:53 AM 80.1 °F 83.6 °F 71.1 °F 74% 29.95 in 10.0 mi ENE 9.2 mph - N/A   Partly Cloudy
8:53 AM 82.0 °F 86.3 °F 71.1 °F 69% 29.96 in 10.0 mi ENE 15.0 mph - N/A   Scattered Clouds
9:53 AM 84.0 °F 89.6 °F 72.0 °F 67% 29.97 in 10.0 mi ENE 12.7 mph 20.7 mph N/A   Partly Cloudy
10:53 AM 86.0 °F 93.8 °F 73.9 °F 67% 29.98 in 10.0 mi ENE 13.8 mph 23.0 mph N/A   Scattered Clouds
11:53 AM 87.1 °F 94.5 °F 73.0 °F 63% 29.97 in 10.0 mi East 20.7 mph - N/A   Scattered Clouds
12:53 PM 87.1 °F 94.5 °F 73.0 °F 63% 29.96 in 10.0 mi ENE 16.1 mph - N/A   Mostly Cloudy
1:53 PM 87.1 °F 93.6 °F 72.0 °F 61% 29.94 in 10.0 mi ENE 13.8 mph 26.5 mph N/A   Scattered Clouds
2:53 PM 86.0 °F 92.2 °F 72.0 °F 63% 29.91 in 10.0 mi NE 15.0 mph 23.0 mph N/A   Scattered Clouds
3:53 PM 86.0 °F 93.0 °F 73.0 °F 65% 29.91 in 10.0 mi ENE 17.3 mph 25.3 mph N/A   Scattered Clouds
4:53 PM 78.1 °F - 73.0 °F 84% 29.91 in 9.0 mi East 13.8 mph 27.6 mph 0.01 in Rain Light Rain
5:53 PM 81.0 °F 86.2 °F 73.9 °F 79% 29.90 in 10.0 mi ENE 12.7 mph - 0.00 in   Mostly Cloudy
6:29 PM 78.1 °F - 72.0 °F 81% 29.90 in 4.0 mi East 13.8 mph 25.3 mph 0.02 in Rain Rain
6:37 PM 77.0 °F - 73.0 °F 88% 29.89 in 2.5 mi East 11.5 mph - 0.05 in Rain Rain
6:44 PM 77.0 °F - 73.9 °F 90% 29.90 in 4.0 mi East 11.5 mph - 0.05 in Rain Light Rain
6:53 PM 77.0 °F - 73.9 °F 90% 29.91 in 1.0 mi East 16.1 mph 23.0 mph 0.17 in Rain Heavy Rain
7:00 PM 75.9 °F - 73.9 °F 94% 29.90 in 1.0 mi East 10.4 mph 23.0 mph 0.05 in Rain Heavy Rain
7:07 PM 75.9 °F - 73.0 °F 91% 29.89 in 5.0 mi East 9.2 mph - 0.05 in Rain Light Rain
7:14 PM 77.0 °F - 73.9 °F 90% 29.90 in 5.0 mi ENE 6.9 mph - 0.05 in Rain Light Rain
7:40 PM 77.0 °F - 75.0 °F 94% 29.90 in 8.0 mi ENE 8.1 mph - 0.06 in Rain Light Rain
7:53 PM 78.1 °F - 75.0 °F 90% 29.91 in 10.0 mi ENE 5.8 mph - 0.06 in   Mostly Cloudy
8:53 PM 78.1 °F - 75.0 °F 90% 29.92 in 10.0 mi NE 3.5 mph - N/A   Mostly Cloudy
9:53 PM 79.0 °F - 73.9 °F 84% 29.92 in 10.0 mi ENE 10.4 mph - 0.00 in Rain Light Rain
10:53 PM 78.1 °F - 75.0 °F 90% 29.92 in 7.0 mi ENE 9.2 mph - 0.04 in Rain Light Rain
11:53 PM 78.1 °F - 75.0 °F 90% 29.90 in 10.0 mi ENE 8.1 mph - 0.04 in   Overcast